Flag for USA

Past Weather in Nashua, New Hampshire, USA — Yesterday and Last 2 Weeks

Now
80 °F

Sunny.


Feels Like: 81 °F
Forecast: 81 / 61 °F
Wind: 6 mph from Southeast

Location: Nashua / Boire Field

Current Time: Jul 7, 2020 at 1:23:13 pm

Latest Report: Jul 7, 2020 at 12:56 pm


Visibility: 10 mi

Pressure: 30.14 "Hg

Humidity: 47%

Dew Point: 58 °F

Location of NashuaLocation

Past Weather in Nashua — Graph

°F

Nashua Temperature Yesterday

Maximum temperature yesterday: 81 °F (at 1:56 pm)
Minimum temperature yesterday: 63 °F (at 11:56 pm)
Average temperature yesterday: 72 °F

High & Low Weather Summary for the Past Weeks

 TemperatureHumidityPressure
High92 °F (Jun 23, 3:56 pm)100% (Jun 23, 1:56 am)30.20 "Hg (Jun 23, 1:56 am)
Low58 °F (Jun 25, 4:56 am)31% (Jun 25, 3:56 pm)29.66 "Hg (Jun 24, 2:56 pm)
Average72 °F82%29.88 "Hg
* Reported Jun 22 11:04 am — Jul 7 11:56 am, Nashua. Weather by CustomWeather, © 2020

Note: Actual official high and low records may vary slightly from our data, if they occured in-between our weather recording intervals... More about our weather records

Nashua Weather History for the Previous 24 Hours

Scroll right to see more
 ConditionsComfort  
Time TempWeatherWind HumidityBarometerVisibility
11:56 am
Tue, Jul 7
79 °FSunny.5 mph54%30.15 "Hg10 mi
10:56 am76 °FSunny.9 mph60%30.16 "Hg10 mi
9:56 am74 °FSunny.7 mph62%30.17 "Hg10 mi
8:56 am71 °FBroken clouds.8 mph81%30.19 "Hg10 mi
7:56 am67 °FBroken clouds.No wind93%30.19 "Hg10 mi
6:56 am65 °FLow clouds.No wind100%30.20 "Hg10 mi
5:56 am64 °FOvercast.No wind100%30.19 "Hg10 mi
4:56 am63 °FOvercast.No wind100%30.17 "Hg10 mi
3:56 am62 °FOvercast.No wind100%30.17 "Hg10 mi
2:56 am62 °FPassing clouds.3 mph100%30.16 "Hg10 mi
1:56 am62 °FPassing clouds.No wind100%30.18 "Hg10 mi
12:56 am62 °FPassing clouds.No wind100%30.17 "Hg10 mi
11:56 pm
Mon, Jul 6
63 °FPassing clouds.No wind93%30.17 "Hg10 mi
10:56 pm66 °FClear.3 mph84%30.16 "Hg10 mi
9:56 pm69 °FPassing clouds.3 mph73%30.16 "Hg10 mi
8:56 pm71 °FClear.3 mph66%30.14 "Hg10 mi
7:56 pm75 °FSunny.5 mph55%30.12 "Hg10 mi
6:56 pm78 °FPassing clouds.6 mph45%30.12 "Hg10 mi
5:56 pm80 °FSunny.7 mph38%30.11 "Hg10 mi
4:56 pm81 °FSunny.10 mph41%30.09 "Hg10 mi
3:56 pm81 °FSunny.7 mph44%30.09 "Hg10 mi
2:56 pm80 °FBroken clouds.5 mph51%30.10 "Hg10 mi
1:56 pm81 °FPartly sunny.10 mph56%30.10 "Hg10 mi
Weather by CustomWeather, © 2020

See weather overview